GSAT0103 (GALILEO-FM3) (38857 NORAD) Tracking and Keplerian Element Data

This shows tracking and keplerian element data for the satellite.

Feedback or suggestion? Click here.




ElementValue
Catalog38857
NameGSAT0103 (GALILEO-FM3)
Epoch Orbit7236
Epoch Day157.4440996
Epoch Year2024
RAAN121.9279
Inclination55.4024
Eccentricity0.0005608
Argument of Perigee280.7939
Mean Anonmoly79.0858
Mean Motion1.70473563
Decay Rate1.4E-07
L11 38857U 12055A 24157.44409960 .00000014 00000+0 00000+0 0 9992
L22 38857 55.4024 121.9279 0005608 280.7939 79.0858 1.70473563 72362



Live tracking and technical data element details for GSAT0103 (GALILEO-FM3) (NORAD 38857). GSAT0103 (GALILEO-FM3) can be tracked NOW for your location showing map with azimuth and elevation plus other details from your city location.







IsCatalogInMostPopularTable: catalog: 38857, numindb: 628
Update: records affected: 1



GetName: 38857 GSAT0103 (GALILEO-FM3)

Hit Count: updated at: Fri, 14 Jun 2024 19:21:21 GMT